Location: Acheville
(50.3840°N, 2.8827°E)
Time: 15:36:23
(UTC+00:00)

ATLAS 3B R/B - Pass Details

Date: 24 October 2021
Orbit: 989 x 1206 km, 63.8° (Epoch: 25 November)

Event Time Altitude Azimuth Distance (km) Brightness Sun altitude
Rises 21:25:22 0° 308° (NW) 3,856 6.4 -43.7°
Reaches altitude 10° 21:28:15 10° 318° (NW) 2,933 5.6 -44.0°
Enters shadow 21:31:41 26° 341° (NNW) 2,034 4.5 -44.4°
